Home > Time Zones > World Clock > Weather > Italy > Monza > Past weeks

Flag for Italy Weather past 2 weeks in Monza, Italy

Now
37 °F

Fog.


Feels Like: 37 °F
Forecast: 32 / 46 °F
Wind: 2 mph from North

Location: Milan / Linate

Current Time: Dec 21, 2014 at 8:43:23 PM

Latest Report: Dec 21, 2014 at 7:50 PM


Visibility: 0 mi

Pressure: 30.48 "Hg

Humidity: 100%

Dew point: 37 °F

Location of MonzaLocation

Historic Weather in Monza — Graph

°F

Monza temperature yesterday

Maximum temperature yesterday: 43 °F (at 3:20 PM)
Minimum temperature yesterday: 39 °F (at 4:20 AM)
Average temperature yesterday: 41 °F

Past Weeks' High & Low Weather Summary

 TemperatureHumidityPressure
High52 °F (Dec 6, 7:20 PM)100% (Dec 7, 12:50 AM)30.48 "Hg (Dec 7, 12:50 AM)
Low30 °F (Dec 10, 6:50 AM)62% (Dec 9, 12:20 PM)29.83 "Hg (Dec 16, 2:50 PM)
Average43 °F95%30.10 "Hg
* Reported Dec 6 7:20 PM — Dec 21 7:20 PM, Monza, Weather by CustomWeather, © 2014

Note: Actual official high and low records may vary slightly from our data, if they occured in-between our weather recording intervals... More about our weather records

Advertising

Monza weather history for previous 24 hours

 ConditionsComfort  
Time TempWeatherWind HumidityBarometerVisibility
7:20 PM
Dec 21
39 °FFog.3 mph100%30.48 "Hg1 mi
6:50 PM37 °FFog.5 mph100%30.45 "Hg1 mi
6:20 PM39 °FSnow. Fog.6 mph100%30.45 "Hg2 mi
5:50 PM39 °FFog.6 mph100%30.42 "Hg2 mi
5:20 PM39 °FFog.6 mph100%30.42 "Hg2 mi
4:50 PM39 °FFog.6 mph100%30.42 "Hg2 mi
4:20 PM41 °FPassing clouds.6 mph100%30.39 "Hg4 mi
3:50 PM43 °FClear.5 mph100%30.39 "Hg5 mi
3:20 PM43 °FClear.5 mph100%30.39 "Hg5 mi
2:50 PM41 °FPassing clouds.2 mph100%30.39 "Hg5 mi
2:20 PM41 °FPartly sunny.2 mph100%30.39 "Hg5 mi
1:50 PM41 °FPartly sunny.3 mph100%30.39 "Hg4 mi
1:20 PM39 °FPartly sunny.2 mph100%30.39 "Hg4 mi
12:50 PM39 °FFog.2 mph100%30.39 "Hg3 mi
12:20 PM39 °FFog.5 mph100%30.42 "Hg2 mi
11:50 AM39 °FFog.3 mph100%30.39 "Hg1 mi
11:20 AM37 °FFog.2 mph100%30.39 "Hg1 mi
10:50 AM37 °FFog.3 mph100%30.39 "Hg1 mi
10:20 AM37 °FFog.5 mph100%30.39 "Hg1 mi
9:50 AM36 °FFog.5 mph100%30.39 "Hg0 mi
9:20 AM36 °FFog.3 mph100%30.36 "Hg0 mi
8:50 AM36 °FFog.5 mph100%30.33 "Hg0 mi
8:20 AM36 °FFog.3 mph100%30.33 "Hg0 mi
7:50 AM36 °FFog.5 mph100%30.30 "Hg0 mi
7:20 AM36 °FFog.2 mph100%30.30 "Hg0 mi
6:50 AM36 °FFog.3 mph100%30.27 "Hg0 mi
6:20 AM36 °FFog.3 mph100%30.27 "Hg0 mi
5:50 AM36 °FPassing clouds.3 mph100%30.24 "Hg1 mi
5:20 AM36 °FFog.6 mph100%30.24 "Hg0 mi
4:50 AM36 °FFog.5 mph100%30.21 "Hg0 mi
4:20 AM36 °FPassing clouds.6 mph100%30.21 "Hg1 mi
3:50 AM37 °FPassing clouds.3 mph100%30.21 "Hg4 mi
3:20 AM37 °FFog.6 mph100%30.18 "Hg1 mi
2:50 AM37 °FFog.5 mph100%30.21 "Hg0 mi
2:20 AM39 °FFog.6 mph100%30.18 "Hg0 mi
1:50 AM39 °FFog.6 mph100%30.18 "Hg0 mi
1:20 AM39 °FFog.7 mph100%30.18 "Hg0 mi
12:50 AM41 °FFog.6 mph100%30.18 "Hg0 mi
12:20 AM41 °FFog.5 mph100%30.18 "Hg0 mi
11:50 PM
Dec 20
41 °FFog.5 mph100%30.18 "Hg1 mi
11:20 PM41 °FFog.6 mph100%30.18 "Hg1 mi
10:50 PM41 °FFog.5 mph100%30.18 "Hg0 mi
10:20 PM41 °FFog.6 mph100%30.18 "Hg1 mi
9:50 PM43 °FFog.3 mph100%30.18 "Hg1 mi
9:20 PM43 °FSnow. Overcast.6 mph100%30.18 "Hg1 mi
8:50 PM43 °FFog.5 mph100%30.18 "Hg0 mi
8:20 PM43 °FFog.6 mph100%30.18 "Hg0 mi
Weather by CustomWeather, © 2014

See weather overviewHow to use our weather pages